Hourly Data Report for October 03, 2017

All times are specified in Local Standard Time (LST). Add 1 hour to adjust for Daylight Saving Time where and when it is observed.

BANCROFT AUTO
ONTARIO

45°04'17.000" N
77°52'44.000" W
330.70 m
616I001
71294
WRK

Download Data

Hourly Data (October 2017)
Hourly Data Report for October 3, 2017
Temp Definition
°C
Dew Point Temp Definition
°C
Rel Hum Definition
%
Wind Dir Definition
10's deg

Wind Spd Definition
km/h
Visibility Definition
km
Stn Press Definition
kPa
Hmdx Definition


Wind Chill Definition


Weather Definition


TIME
00:00 2.4 2.4 100   0   99.10     LegendNANA
01:00 1.4 1.4 100 0 1   99.09     LegendNANA
02:00 1.3 1.3 100 30 2   99.11     LegendNANA
03:00 0.8 0.8 100 30 2   99.11     LegendNANA
04:00 0.1 0.1 100   0   99.12     LegendNANA
05:00 0.0 0.0 100 0 1   99.14   0 LegendNANA
06:00 -0.4 -0.4 100 0 1   99.15   -1 LegendNANA
07:00 0.3 0.3 100   0   99.18     LegendNANA
08:00 5.6 5.6 100 0 1   99.19     LegendNANA
09:00 13.7 11.3 86 12 4   99.17     LegendNANA
10:00 17.7 10.8 64 16 3   99.11     LegendNANA
11:00 19.8 9.5 51 20 9   99.06     LegendNANA
12:00 21.5 8.5 43 20 10   99.04     LegendNANA
13:00 22.5 8.0 39 21 9   98.98     LegendNANA
14:00 22.9 7.2 36 22 11   98.95     LegendNANA
15:00 22.5 8.5 41 19 13   98.86     LegendNANA
16:00 22.1 9.2 44 19 11   98.83     LegendNANA
17:00 20.4 10.0 51 21 8   98.82     LegendNANA
18:00 18.5 9.8 57 20 8   98.81     LegendNANA
19:00 16.7 9.6 63 19 8   98.80     LegendNANA
20:00 15.2 9.2 68 18 4   98.81     LegendNANA
21:00 14.5 9.2 70 19 6   98.80     LegendNANA
22:00 14.6 9.1 70 18 8   98.75     LegendNANA
23:00 13.4 8.8 74 13 1   98.72     LegendNANA

Notes on Data Quality.

Legend

  • E = Estimated
  • M = Missing
  • NA = Not Available
  • ‡ = Partner data that is not subject to review by the National Climate Archives
Date modified: